Terminal Aerodrome Forecast
Issued by NWS Charleston, WV

Current Version | Previous Version | Graphics & Text | Print | Product List | Glossary On
Versions: 1 2 3 4 5 6 7 8 9 10 11 12 13 14 15 16 17 18 19 20 21 22 23
000
FTUS41 KRLX 161400 AAA
TAFEKN
TAF AMD
KEKN 161449Z 1615/1712 24010KT P6SM BKN035
     FM161800 26013G23KT 4SM -SHRA OVC022
     FM162000 26012G21KT P6SM OVC015
     FM170100 26012G18KT 6SM -DZ BR OVC015=

USA.gov is the U.S. government's official web portal to all federal, state and local government web resources and services.